Location: Clarks Summit,Pa.
(41.5000°N, 75.6000°W)
Time: 20:43:44
(UTC-05:00)

Tiangong 2 - Visible Passes

Search period start: 15 December 2018 00:00
Search period end: 25 December 2018 00:00
Orbit: 383 x 391 km, 42.8° (Epoch: 15 December)

Date Brightness Start Highest point End Pass type
(mag) Time Alt. Az. Time Alt. Az. Time Alt. Az.
18 Dec 4.1 19:02:46 10° SW 19:03:12 13° SW 19:03:12 13° SW visible
19 Dec 2.8 18:04:33 10° SSW 18:07:01 21° SSE 18:07:19 21° SE visible
20 Dec 3.6 17:06:59 10° S 17:08:25 13° SE 17:09:52 10° ESE visible
20 Dec 2.7 18:41:39 10° WSW 18:43:38 33° SW 18:43:38 33° SW visible
21 Dec 2.1 17:43:06 10° SW 17:46:02 35° SSE 17:47:38 21° ESE visible
21 Dec 4.5 19:19:33 10° W 19:19:54 13° W 19:19:54 13° W visible
22 Dec 1.0 18:20:43 10° WSW 18:23:52 83° S 18:23:52 83° S visible
23 Dec 1.4 17:21:58 10° WSW 17:25:05 57° SSE 17:27:48 13° E visible
23 Dec 3.5 18:58:44 10° W 19:00:04 23° W 19:00:04 23° W visible
24 Dec 1.0 17:59:51 10° W 18:03:01 76° N 18:04:00 40° ENE visible
